Year,Month,Day,Hour,Minute,Value (Times are PST for temperature in C)
2009,07,29,00,00,23.30
2009,07,29,00,01,23.30
2009,07,29,00,02,23.30
2009,07,29,00,03,23.20
2009,07,29,00,04,23.20
2009,07,29,00,05,23.20
2009,07,29,00,06,23.20
2009,07,29,00,07,23.20
2009,07,29,00,08,23.10
2009,07,29,00,09,23.10
2009,07,29,00,10,23.10
2009,07,29,00,11,23.00
2009,07,29,00,12,22.90
2009,07,29,00,13,22.90
2009,07,29,00,14,22.90
2009,07,29,00,15,22.90
2009,07,29,00,16,22.90
2009,07,29,00,17,22.90
2009,07,29,00,18,22.90
2009,07,29,00,19,22.90
2009,07,29,00,20,22.90
2009,07,29,00,21,22.90
2009,07,29,00,22,22.90
2009,07,29,00,23,22.80
2009,07,29,00,24,22.80
2009,07,29,00,25,22.80
2009,07,29,00,26,22.80
2009,07,29,00,27,22.80
2009,07,29,00,28,22.80
2009,07,29,00,29,22.70
2009,07,29,00,30,22.70
2009,07,29,00,31,22.70
2009,07,29,00,32,22.70
2009,07,29,00,33,22.60
2009,07,29,00,34,22.60
2009,07,29,00,35,22.60
2009,07,29,00,36,22.60
2009,07,29,00,37,22.60
2009,07,29,00,38,22.50
2009,07,29,00,39,22.50
2009,07,29,00,40,22.50
2009,07,29,00,41,22.50
2009,07,29,00,42,22.50
2009,07,29,00,43,22.40
2009,07,29,00,44,22.40
2009,07,29,00,45,22.40
2009,07,29,00,46,22.40
2009,07,29,00,47,22.40
2009,07,29,00,48,22.30
2009,07,29,00,49,22.30
2009,07,29,00,50,22.30
2009,07,29,00,51,22.30
2009,07,29,00,52,22.30
2009,07,29,00,53,22.30
2009,07,29,00,54,22.20
2009,07,29,00,55,22.20
2009,07,29,00,56,22.20
2009,07,29,00,57,22.20
2009,07,29,00,58,22.10
2009,07,29,00,59,22.10
2009,07,29,01,00,22.00
2009,07,29,01,01,22.00
2009,07,29,01,02,21.90
2009,07,29,01,03,21.90
2009,07,29,01,04,21.80
2009,07,29,01,05,21.80
2009,07,29,01,06,21.80
2009,07,29,01,07,21.80
2009,07,29,01,08,21.70
2009,07,29,01,09,21.70
2009,07,29,01,10,21.60
2009,07,29,01,11,21.60
2009,07,29,01,12,21.60
2009,07,29,01,13,21.60
2009,07,29,01,14,21.60
2009,07,29,01,15,21.50
2009,07,29,01,16,21.40
2009,07,29,01,17,21.40
2009,07,29,01,18,21.30
2009,07,29,01,19,21.30
2009,07,29,01,20,21.30
2009,07,29,01,21,21.30
2009,07,29,01,22,21.30
2009,07,29,01,23,21.30
2009,07,29,01,24,21.30
2009,07,29,01,25,21.30
2009,07,29,01,26,21.30
2009,07,29,01,27,21.30
2009,07,29,01,28,21.40
2009,07,29,01,29,21.40
2009,07,29,01,30,21.40
2009,07,29,01,31,21.40
2009,07,29,01,32,21.40
2009,07,29,01,33,21.40
2009,07,29,01,34,21.40
2009,07,29,01,35,21.40
2009,07,29,01,36,21.40
2009,07,29,01,37,21.40
2009,07,29,01,38,21.40
2009,07,29,01,39,21.40
2009,07,29,01,40,21.40
2009,07,29,01,41,21.40
2009,07,29,01,42,21.40
2009,07,29,01,43,21.50
2009,07,29,01,44,21.60
2009,07,29,01,45,21.60
2009,07,29,01,46,21.40
2009,07,29,01,47,21.40
2009,07,29,01,48,21.40
2009,07,29,01,49,21.40
2009,07,29,01,50,21.30
2009,07,29,01,51,21.30
2009,07,29,01,52,21.30
2009,07,29,01,53,21.30
2009,07,29,01,54,21.30
2009,07,29,01,55,21.30
2009,07,29,01,56,21.30
2009,07,29,01,57,21.30
2009,07,29,01,58,21.30
2009,07,29,01,59,21.30
2009,07,29,02,00,21.30
2009,07,29,02,01,21.30
2009,07,29,02,02,21.30
2009,07,29,02,03,21.30
2009,07,29,02,04,21.30
2009,07,29,02,05,21.40
2009,07,29,02,06,21.40
2009,07,29,02,07,21.40
2009,07,29,02,08,21.40
2009,07,29,02,09,21.40
2009,07,29,02,10,21.40
2009,07,29,02,11,21.40
2009,07,29,02,12,21.40
2009,07,29,02,13,21.40
2009,07,29,02,14,21.40
2009,07,29,02,15,21.40
2009,07,29,02,16,21.40
2009,07,29,02,17,21.40
2009,07,29,02,18,21.40
2009,07,29,02,19,21.40
2009,07,29,02,20,21.40
2009,07,29,02,21,21.30
2009,07,29,02,22,21.30
2009,07,29,02,23,21.30
2009,07,29,02,24,21.30
2009,07,29,02,25,21.30
2009,07,29,02,26,21.30
2009,07,29,02,27,21.30
2009,07,29,02,28,21.30
2009,07,29,02,29,21.30
2009,07,29,02,30,21.30
2009,07,29,02,31,21.30
2009,07,29,02,32,21.30
2009,07,29,02,33,21.30
2009,07,29,02,34,21.30
2009,07,29,02,35,21.30
2009,07,29,02,36,21.30
2009,07,29,02,37,21.20
2009,07,29,02,38,21.20
2009,07,29,02,39,21.20
2009,07,29,02,40,21.20
2009,07,29,02,41,21.20
2009,07,29,02,42,21.20
2009,07,29,02,43,21.20
2009,07,29,02,44,21.20
2009,07,29,02,45,21.10
2009,07,29,02,46,21.10
2009,07,29,02,47,21.10
2009,07,29,02,48,21.10
2009,07,29,02,49,21.10
2009,07,29,02,50,21.10
2009,07,29,02,51,21.10
2009,07,29,02,52,21.10
2009,07,29,02,53,21.10
2009,07,29,02,54,21.10
2009,07,29,02,55,21.10
2009,07,29,02,56,21.00
2009,07,29,02,57,21.00
2009,07,29,02,58,21.00
2009,07,29,02,59,20.90
2009,07,29,03,00,20.90
2009,07,29,03,01,20.90
2009,07,29,03,02,20.80
2009,07,29,03,03,20.80
2009,07,29,03,04,20.80
2009,07,29,03,05,20.80
2009,07,29,03,06,20.80
2009,07,29,03,07,20.70
2009,07,29,03,08,20.70
2009,07,29,03,09,20.70
2009,07,29,03,10,20.60
2009,07,29,03,11,20.60
2009,07,29,03,12,20.50
2009,07,29,03,13,20.40
2009,07,29,03,14,20.40
2009,07,29,03,15,20.30
2009,07,29,03,16,20.20
2009,07,29,03,17,20.20
2009,07,29,03,18,20.00
2009,07,29,03,19,19.90
2009,07,29,03,20,19.80
2009,07,29,03,21,19.70
2009,07,29,03,22,19.60
2009,07,29,03,23,19.60
2009,07,29,03,24,19.50
2009,07,29,03,25,19.40
2009,07,29,03,26,19.30
2009,07,29,03,27,19.20
2009,07,29,03,28,19.10
2009,07,29,03,29,19.10
2009,07,29,03,30,19.00
2009,07,29,03,31,18.90
2009,07,29,03,32,18.90
2009,07,29,03,33,18.80
2009,07,29,03,34,18.70
2009,07,29,03,35,18.60
2009,07,29,03,36,18.50
2009,07,29,03,37,18.50
2009,07,29,03,38,18.40
2009,07,29,03,39,18.30
2009,07,29,03,40,18.30
2009,07,29,03,41,18.20
2009,07,29,03,42,18.20
2009,07,29,03,43,18.10
2009,07,29,03,44,18.00
2009,07,29,03,45,17.90
2009,07,29,03,46,17.90
2009,07,29,03,47,17.80
2009,07,29,03,48,17.70
2009,07,29,03,49,17.70
2009,07,29,03,50,17.60
2009,07,29,03,51,17.60
2009,07,29,03,52,17.60
2009,07,29,03,53,17.60
2009,07,29,03,54,17.60
2009,07,29,03,55,17.60
2009,07,29,03,56,17.60
2009,07,29,03,57,17.60
2009,07,29,03,58,17.60
2009,07,29,03,59,17.70
2009,07,29,04,00,17.70
2009,07,29,04,01,17.70
2009,07,29,04,02,17.70
2009,07,29,04,03,17.80
2009,07,29,04,04,17.80
2009,07,29,04,05,17.90
2009,07,29,04,06,17.90
2009,07,29,04,07,18.10
2009,07,29,04,08,18.10
2009,07,29,04,09,18.10
2009,07,29,04,10,18.10
2009,07,29,04,11,18.20
2009,07,29,04,12,18.20
2009,07,29,04,13,18.20
2009,07,29,04,14,18.20
2009,07,29,04,15,18.20
2009,07,29,04,16,18.30
2009,07,29,04,17,18.30
2009,07,29,04,18,18.40
2009,07,29,04,19,18.50
2009,07,29,04,20,18.50
2009,07,29,04,21,18.50
2009,07,29,04,22,18.60
2009,07,29,04,23,18.60
2009,07,29,04,24,18.60
2009,07,29,04,25,18.60
2009,07,29,04,26,18.60
2009,07,29,04,27,18.60
2009,07,29,04,28,18.60
2009,07,29,04,29,18.60
2009,07,29,04,30,18.60
2009,07,29,04,31,18.60
2009,07,29,04,32,18.50
2009,07,29,04,33,18.50
2009,07,29,04,34,18.50
2009,07,29,04,35,18.50
2009,07,29,04,36,18.50
2009,07,29,04,37,18.50
2009,07,29,04,38,18.40
2009,07,29,04,39,18.40
2009,07,29,04,40,18.40
2009,07,29,04,41,18.30
2009,07,29,04,42,18.30
2009,07,29,04,43,18.30
2009,07,29,04,44,18.20
2009,07,29,04,45,18.20
2009,07,29,04,46,18.20
2009,07,29,04,47,18.20
2009,07,29,04,48,18.20
2009,07,29,04,49,18.20
2009,07,29,04,50,18.30
2009,07,29,04,51,18.30
2009,07,29,04,52,18.30
2009,07,29,04,53,18.30
2009,07,29,04,54,18.30
2009,07,29,04,55,18.30
2009,07,29,04,56,18.40
2009,07,29,04,57,18.40
2009,07,29,04,58,18.40
2009,07,29,04,59,18.40
2009,07,29,05,00,18.40
2009,07,29,05,01,18.40
2009,07,29,05,02,18.50
2009,07,29,05,03,18.50
2009,07,29,05,04,18.50
2009,07,29,05,05,18.50
2009,07,29,05,06,18.60
2009,07,29,05,07,18.60
2009,07,29,05,08,18.60
2009,07,29,05,09,18.60
2009,07,29,05,10,18.60
2009,07,29,05,11,18.60
2009,07,29,05,12,18.60
2009,07,29,05,13,18.60
2009,07,29,05,14,18.70
2009,07,29,05,15,18.70
2009,07,29,05,16,18.70
2009,07,29,05,17,18.70
2009,07,29,05,18,18.70
2009,07,29,05,19,18.70
2009,07,29,05,20,18.70
2009,07,29,05,21,18.70
2009,07,29,05,22,18.70
2009,07,29,05,23,18.70
2009,07,29,05,24,18.70
2009,07,29,05,25,18.80
2009,07,29,05,26,18.80
2009,07,29,05,27,18.80
2009,07,29,05,28,18.80
2009,07,29,05,29,18.80
2009,07,29,05,30,18.80
2009,07,29,05,31,18.80
2009,07,29,05,32,18.80
2009,07,29,05,33,18.90
2009,07,29,05,34,18.90
2009,07,29,05,35,18.80
2009,07,29,05,36,18.80
2009,07,29,05,37,18.90
2009,07,29,05,38,18.90
2009,07,29,05,39,18.90
2009,07,29,05,40,18.90
2009,07,29,05,41,18.90
2009,07,29,05,42,18.90
2009,07,29,05,43,18.90
2009,07,29,05,44,19.00
2009,07,29,05,45,19.10
2009,07,29,05,46,19.10
2009,07,29,05,47,19.10
2009,07,29,05,48,19.20
2009,07,29,05,49,19.30
2009,07,29,05,50,19.40
2009,07,29,05,51,19.50
2009,07,29,05,52,19.60
2009,07,29,05,53,19.80
2009,07,29,05,54,19.90
2009,07,29,05,55,20.00
2009,07,29,05,56,20.10
2009,07,29,05,57,20.20
2009,07,29,05,58,20.20
2009,07,29,05,59,20.30
2009,07,29,06,00,20.40
2009,07,29,06,01,20.50
2009,07,29,06,02,20.50
2009,07,29,06,03,20.60
2009,07,29,06,04,20.60
2009,07,29,06,05,20.70
2009,07,29,06,06,20.70
2009,07,29,06,07,20.80
2009,07,29,06,08,20.80
2009,07,29,06,09,20.80
2009,07,29,06,10,21.00
2009,07,29,06,11,21.00
2009,07,29,06,12,21.00
2009,07,29,06,13,21.10
2009,07,29,06,14,21.10
2009,07,29,06,15,21.10
2009,07,29,06,16,21.20
2009,07,29,06,17,21.20
2009,07,29,06,18,21.20
2009,07,29,06,19,21.30
2009,07,29,06,20,21.40
2009,07,29,06,21,21.60
2009,07,29,06,22,21.60
2009,07,29,06,23,21.70
2009,07,29,06,24,21.80
2009,07,29,06,25,21.80
2009,07,29,06,26,21.90
2009,07,29,06,27,21.90
2009,07,29,06,28,21.90
2009,07,29,06,29,21.90
2009,07,29,06,30,21.90
2009,07,29,06,31,21.90
2009,07,29,06,32,21.90
2009,07,29,06,33,21.90
2009,07,29,06,34,21.90
2009,07,29,06,35,21.90
2009,07,29,06,36,21.90
2009,07,29,06,37,21.90
2009,07,29,06,38,21.90
2009,07,29,06,39,21.90
2009,07,29,06,40,21.90
2009,07,29,06,41,21.90
2009,07,29,06,42,21.80
2009,07,29,06,43,21.80
2009,07,29,06,44,21.80
2009,07,29,06,45,21.90
2009,07,29,06,46,21.90
2009,07,29,06,47,22.00
2009,07,29,06,48,22.00
2009,07,29,06,49,22.10
2009,07,29,06,50,21.90
2009,07,29,06,51,21.60
2009,07,29,06,52,21.30
2009,07,29,06,53,21.10
2009,07,29,06,54,21.00
2009,07,29,06,55,20.90
2009,07,29,06,56,20.80
2009,07,29,06,57,20.70
2009,07,29,06,58,20.50
2009,07,29,06,59,20.40
2009,07,29,07,00,20.40
2009,07,29,07,01,20.30
2009,07,29,07,02,20.30
2009,07,29,07,03,20.30
2009,07,29,07,04,20.40
2009,07,29,07,05,20.40
2009,07,29,07,06,20.50
2009,07,29,07,07,20.50
2009,07,29,07,08,20.60
2009,07,29,07,09,20.70
2009,07,29,07,10,20.80
2009,07,29,07,11,20.80
2009,07,29,07,12,20.90
2009,07,29,07,13,21.00
2009,07,29,07,14,21.10
2009,07,29,07,15,21.20
2009,07,29,07,16,21.30
2009,07,29,07,17,21.30
2009,07,29,07,18,21.50
2009,07,29,07,19,21.60
2009,07,29,07,20,21.60
2009,07,29,07,21,21.80
2009,07,29,07,22,21.90
2009,07,29,07,23,22.00
2009,07,29,07,24,22.10
2009,07,29,07,25,22.20
2009,07,29,07,26,22.30
2009,07,29,07,27,22.40
2009,07,29,07,28,22.40
2009,07,29,07,29,22.40
2009,07,29,07,30,22.40
2009,07,29,07,31,22.50
2009,07,29,07,32,22.50
2009,07,29,07,33,22.50
2009,07,29,07,34,22.50
2009,07,29,07,35,22.50
2009,07,29,07,36,22.60
2009,07,29,07,37,22.60
2009,07,29,07,38,22.60
2009,07,29,07,39,22.60
2009,07,29,07,40,22.60
2009,07,29,07,41,22.70
2009,07,29,07,42,22.70
2009,07,29,07,43,22.80
2009,07,29,07,44,22.80
2009,07,29,07,45,22.90
2009,07,29,07,46,22.90
2009,07,29,07,47,23.00
2009,07,29,07,48,23.10
2009,07,29,07,49,23.20
2009,07,29,07,50,23.20
2009,07,29,07,51,23.30
2009,07,29,07,52,23.30
2009,07,29,07,53,23.30
2009,07,29,07,54,23.40
2009,07,29,07,55,23.40
2009,07,29,07,56,23.50
2009,07,29,07,57,23.60
2009,07,29,07,58,23.60
2009,07,29,07,59,23.60
2009,07,29,08,00,23.60
2009,07,29,08,01,23.60
2009,07,29,08,02,23.60
2009,07,29,08,03,23.60
2009,07,29,08,04,23.50
2009,07,29,08,05,23.40
2009,07,29,08,06,23.40
2009,07,29,08,07,23.30
2009,07,29,08,08,23.30
2009,07,29,08,09,23.30
2009,07,29,08,10,23.30
2009,07,29,08,11,23.30
2009,07,29,08,12,23.30
2009,07,29,08,13,23.20
2009,07,29,08,14,23.20
2009,07,29,08,15,23.20
2009,07,29,08,16,23.20
2009,07,29,08,17,23.20
2009,07,29,08,18,23.30
2009,07,29,08,19,23.30
2009,07,29,08,20,23.30
2009,07,29,08,21,23.30
2009,07,29,08,22,23.30
2009,07,29,08,23,23.30
2009,07,29,08,24,23.30
2009,07,29,08,25,23.30
2009,07,29,08,26,23.30
2009,07,29,08,27,23.30
2009,07,29,08,28,23.30
2009,07,29,08,29,23.30
2009,07,29,08,30,23.40
2009,07,29,08,31,23.40
2009,07,29,08,32,23.40
2009,07,29,08,33,23.50
2009,07,29,08,34,23.60
2009,07,29,08,35,23.70
2009,07,29,08,36,23.80
2009,07,29,08,37,23.90
2009,07,29,08,38,23.90
2009,07,29,08,39,24.10
2009,07,29,08,40,24.10
2009,07,29,08,41,24.10
2009,07,29,08,42,24.20
2009,07,29,08,43,24.30
2009,07,29,08,44,24.30
2009,07,29,08,45,24.40
2009,07,29,08,46,24.50
2009,07,29,08,47,24.50
2009,07,29,08,48,24.50
2009,07,29,08,49,24.50
2009,07,29,08,50,24.50
2009,07,29,08,51,24.50
2009,07,29,08,52,24.50
2009,07,29,08,53,24.50
2009,07,29,08,54,24.50
2009,07,29,08,55,24.60
2009,07,29,08,56,24.60
2009,07,29,08,57,24.70
2009,07,29,08,58,24.80
2009,07,29,08,59,24.80
2009,07,29,09,00,24.90
2009,07,29,09,01,24.90
2009,07,29,09,02,24.90
2009,07,29,09,03,24.90
2009,07,29,09,04,24.90
2009,07,29,09,05,24.90
2009,07,29,09,06,24.80
2009,07,29,09,07,24.80
2009,07,29,09,08,24.90
2009,07,29,09,09,24.80
2009,07,29,09,10,24.80
2009,07,29,09,11,24.80
2009,07,29,09,12,24.80
2009,07,29,09,13,24.80
2009,07,29,09,14,24.80
2009,07,29,09,15,24.80
2009,07,29,09,16,24.80
2009,07,29,09,17,24.70
2009,07,29,09,18,24.80
2009,07,29,09,19,24.80
2009,07,29,09,20,24.90
2009,07,29,09,21,25.00
2009,07,29,09,22,25.00
2009,07,29,09,23,25.10
2009,07,29,09,24,25.20
2009,07,29,09,25,25.20
2009,07,29,09,26,25.20
2009,07,29,09,27,25.20
2009,07,29,09,28,25.20
2009,07,29,09,29,25.10
2009,07,29,09,30,25.10
2009,07,29,09,31,25.10
2009,07,29,09,32,25.10
2009,07,29,09,33,25.10
2009,07,29,09,34,25.10
2009,07,29,09,35,25.10
2009,07,29,09,36,25.10
2009,07,29,09,37,25.10
2009,07,29,09,38,25.10
2009,07,29,09,39,25.10
2009,07,29,09,40,25.20
2009,07,29,09,41,25.20
2009,07,29,09,42,25.30
2009,07,29,09,43,25.30
2009,07,29,09,44,25.30
2009,07,29,09,45,25.30
2009,07,29,09,46,25.30
2009,07,29,09,47,25.30
2009,07,29,09,48,25.30
2009,07,29,09,49,25.30
2009,07,29,09,50,25.30
2009,07,29,09,51,25.40
2009,07,29,09,52,25.40
2009,07,29,09,53,25.40
2009,07,29,09,54,25.40
2009,07,29,09,55,25.50
2009,07,29,09,56,25.50
2009,07,29,09,57,25.50
2009,07,29,09,58,25.50
2009,07,29,09,59,25.50
2009,07,29,10,00,25.50
2009,07,29,10,01,25.60
2009,07,29,10,02,25.70
2009,07,29,10,03,25.80
2009,07,29,10,04,25.80
2009,07,29,10,05,25.90
2009,07,29,10,06,25.90
2009,07,29,10,07,25.90
2009,07,29,10,08,25.90
2009,07,29,10,09,25.90
2009,07,29,10,10,25.80
2009,07,29,10,11,25.90
2009,07,29,10,12,25.90
2009,07,29,10,13,25.80
2009,07,29,10,14,25.80
2009,07,29,10,15,25.80
2009,07,29,10,16,25.90
2009,07,29,10,17,26.00
2009,07,29,10,18,26.00
2009,07,29,10,19,26.10
2009,07,29,10,20,26.20
2009,07,29,10,21,26.20
2009,07,29,10,22,26.30
2009,07,29,10,23,26.40
2009,07,29,10,24,26.40
2009,07,29,10,25,26.40
2009,07,29,10,26,26.60
2009,07,29,10,27,26.60
2009,07,29,10,28,26.60
2009,07,29,10,29,26.60
2009,07,29,10,30,26.60
2009,07,29,10,31,26.60
2009,07,29,10,32,26.60
2009,07,29,10,33,26.60
2009,07,29,10,34,26.60
2009,07,29,10,35,26.60
2009,07,29,10,36,26.70
2009,07,29,10,37,26.70
2009,07,29,10,38,26.80
2009,07,29,10,39,26.90
2009,07,29,10,40,26.90
2009,07,29,10,41,27.10
2009,07,29,10,42,26.90
2009,07,29,10,43,26.90
2009,07,29,10,44,27.10
2009,07,29,10,45,27.10
2009,07,29,10,46,27.00
2009,07,29,10,47,26.90
2009,07,29,10,48,26.90
2009,07,29,10,49,26.90
2009,07,29,10,50,26.80
2009,07,29,10,51,26.90
2009,07,29,10,52,27.00
2009,07,29,10,53,27.00
2009,07,29,10,54,26.90
2009,07,29,10,55,26.90
2009,07,29,10,56,26.90
2009,07,29,10,57,27.00
2009,07,29,10,58,27.10
2009,07,29,10,59,27.20
2009,07,29,11,00,27.30
2009,07,29,11,01,27.30
2009,07,29,11,02,27.30
2009,07,29,11,03,27.40
2009,07,29,11,04,27.40
2009,07,29,11,05,27.40
2009,07,29,11,06,27.40
2009,07,29,11,07,27.50
2009,07,29,11,08,27.60
2009,07,29,11,09,27.60
2009,07,29,11,10,27.70
2009,07,29,11,11,27.70
2009,07,29,11,12,27.70
2009,07,29,11,13,27.70
2009,07,29,11,14,27.80
2009,07,29,11,15,27.70
2009,07,29,11,16,27.70
2009,07,29,11,17,27.70
2009,07,29,11,18,27.80
2009,07,29,11,19,27.80
2009,07,29,11,20,27.90
2009,07,29,11,21,28.00
2009,07,29,11,22,28.00
2009,07,29,11,23,28.00
2009,07,29,11,24,28.00
2009,07,29,11,25,28.00
2009,07,29,11,26,27.90
2009,07,29,11,27,27.90
2009,07,29,11,28,27.90
2009,07,29,11,29,27.90
2009,07,29,11,30,27.90
2009,07,29,11,31,28.00
2009,07,29,11,32,28.00
2009,07,29,11,33,27.90
2009,07,29,11,34,27.90
2009,07,29,11,35,28.00
2009,07,29,11,36,28.00
2009,07,29,11,37,28.10
2009,07,29,11,38,28.10
2009,07,29,11,39,28.00
2009,07,29,11,40,28.00
2009,07,29,11,41,28.00
2009,07,29,11,42,28.00
2009,07,29,11,43,28.00
2009,07,29,11,44,28.00
2009,07,29,11,45,28.10
2009,07,29,11,46,28.20
2009,07,29,11,47,28.30
2009,07,29,11,48,28.30
2009,07,29,11,49,28.30
2009,07,29,11,50,28.40
2009,07,29,11,51,28.40
2009,07,29,11,52,28.40
2009,07,29,11,53,28.40
2009,07,29,11,54,28.50
2009,07,29,11,55,28.40
2009,07,29,11,56,28.40
2009,07,29,11,57,28.40
2009,07,29,11,58,28.40
2009,07,29,11,59,28.50
2009,07,29,12,00,28.60
2009,07,29,12,01,28.60
2009,07,29,12,02,28.80
2009,07,29,12,03,28.90
2009,07,29,12,04,28.90
2009,07,29,12,05,28.90
2009,07,29,12,06,28.80
2009,07,29,12,07,28.70
2009,07,29,12,08,28.60
2009,07,29,12,09,28.60
2009,07,29,12,10,28.50
2009,07,29,12,11,28.40
2009,07,29,12,12,28.30
2009,07,29,12,13,28.20
2009,07,29,12,14,28.30
2009,07,29,12,15,28.30
2009,07,29,12,16,28.40
2009,07,29,12,17,28.40
2009,07,29,12,18,28.50
2009,07,29,12,19,28.60
2009,07,29,12,20,28.60
2009,07,29,12,21,28.60
2009,07,29,12,22,28.60
2009,07,29,12,23,28.60
2009,07,29,12,24,28.60
2009,07,29,12,25,28.60
2009,07,29,12,26,28.60
2009,07,29,12,27,28.60
2009,07,29,12,28,28.60
2009,07,29,12,29,28.70
2009,07,29,12,30,28.90
2009,07,29,12,31,29.00
2009,07,29,12,32,29.10
2009,07,29,12,33,29.10
2009,07,29,12,34,29.20
2009,07,29,12,35,29.40
2009,07,29,12,36,29.50
2009,07,29,12,37,29.60
2009,07,29,12,38,29.60
2009,07,29,12,39,29.70
2009,07,29,12,40,29.80
2009,07,29,12,41,29.80
2009,07,29,12,42,29.90
2009,07,29,12,43,29.90
2009,07,29,12,44,30.00
2009,07,29,12,45,30.10
2009,07,29,12,46,30.10
2009,07,29,12,47,30.20
2009,07,29,12,48,30.10
2009,07,29,12,49,30.10
2009,07,29,12,50,30.10
2009,07,29,12,51,30.00
2009,07,29,12,52,29.90
2009,07,29,12,53,29.90
2009,07,29,12,54,29.90
2009,07,29,12,55,30.10
2009,07,29,12,56,30.10
2009,07,29,12,57,30.20
2009,07,29,12,58,30.20
2009,07,29,12,59,30.40
2009,07,29,13,00,30.60
2009,07,29,13,01,30.70
2009,07,29,13,02,30.80
2009,07,29,13,03,30.80
2009,07,29,13,04,30.80
2009,07,29,13,05,30.90
2009,07,29,13,06,31.00
2009,07,29,13,07,31.00
2009,07,29,13,08,31.00
2009,07,29,13,09,31.10
2009,07,29,13,10,31.00
2009,07,29,13,11,30.90
2009,07,29,13,12,30.90
2009,07,29,13,13,30.90
2009,07,29,13,14,30.90
2009,07,29,13,15,30.90
2009,07,29,13,16,30.90
2009,07,29,13,17,31.00
2009,07,29,13,18,31.10
2009,07,29,13,19,31.10
2009,07,29,13,20,31.10
2009,07,29,13,21,31.10
2009,07,29,13,22,31.20
2009,07,29,13,23,31.20
2009,07,29,13,24,31.20
2009,07,29,13,25,31.30
2009,07,29,13,26,31.30
2009,07,29,13,27,31.40
2009,07,29,13,28,31.40
2009,07,29,13,29,31.40
2009,07,29,13,30,31.40
2009,07,29,13,31,31.40
2009,07,29,13,32,31.50
2009,07,29,13,33,31.60
2009,07,29,13,34,31.60
2009,07,29,13,35,31.60
2009,07,29,13,36,31.60
2009,07,29,13,37,31.60
2009,07,29,13,38,31.50
2009,07,29,13,39,31.40
2009,07,29,13,40,31.30
2009,07,29,13,41,31.30
2009,07,29,13,42,31.30
2009,07,29,13,43,31.30
2009,07,29,13,44,31.40
2009,07,29,13,45,31.50
2009,07,29,13,46,31.70
2009,07,29,13,47,31.80
2009,07,29,13,48,31.90
2009,07,29,13,49,32.00
2009,07,29,13,50,32.10
2009,07,29,13,51,32.20
2009,07,29,13,52,32.20
2009,07,29,13,53,32.20
2009,07,29,13,54,32.10
2009,07,29,13,55,32.10
2009,07,29,13,56,32.10
2009,07,29,13,57,32.20
2009,07,29,13,58,32.20
2009,07,29,13,59,32.10
2009,07,29,14,00,32.10
2009,07,29,14,01,32.10
2009,07,29,14,02,32.10
2009,07,29,14,03,32.10
2009,07,29,14,04,32.10
2009,07,29,14,05,32.10
2009,07,29,14,06,32.20
2009,07,29,14,07,32.30
2009,07,29,14,08,32.30
2009,07,29,14,09,32.30
2009,07,29,14,10,32.20
2009,07,29,14,11,32.20
2009,07,29,14,12,32.30
2009,07,29,14,13,32.30
2009,07,29,14,14,32.40
2009,07,29,14,15,32.40
2009,07,29,14,16,32.40
2009,07,29,14,17,32.40
2009,07,29,14,18,32.40
2009,07,29,14,19,32.40
2009,07,29,14,20,32.30
2009,07,29,14,21,32.30
2009,07,29,14,22,32.40
2009,07,29,14,23,32.40
2009,07,29,14,24,32.50
2009,07,29,14,25,32.50
2009,07,29,14,26,32.50
2009,07,29,14,27,32.50
2009,07,29,14,28,32.50
2009,07,29,14,29,32.50
2009,07,29,14,30,32.50
2009,07,29,14,31,32.60
2009,07,29,14,32,32.80
2009,07,29,14,33,32.80
2009,07,29,14,34,32.80
2009,07,29,14,35,32.70
2009,07,29,14,36,32.60
2009,07,29,14,37,32.60
2009,07,29,14,38,32.50
2009,07,29,14,39,32.50
2009,07,29,14,40,32.50
2009,07,29,14,41,32.60
2009,07,29,14,42,32.80
2009,07,29,14,43,33.00
2009,07,29,14,44,33.10
2009,07,29,14,45,33.20
2009,07,29,14,46,33.20
2009,07,29,14,47,33.20
2009,07,29,14,48,33.20
2009,07,29,14,49,33.20
2009,07,29,14,50,33.20
2009,07,29,14,51,33.30
2009,07,29,14,52,33.40
2009,07,29,14,53,33.50
2009,07,29,14,54,33.50
2009,07,29,14,55,33.50
2009,07,29,14,56,33.40
2009,07,29,14,57,33.40
2009,07,29,14,58,33.20
2009,07,29,14,59,33.10
2009,07,29,15,00,33.10
2009,07,29,15,01,33.00
2009,07,29,15,02,33.00
2009,07,29,15,03,32.90
2009,07,29,15,04,33.00
2009,07,29,15,05,33.00
2009,07,29,15,06,33.00
2009,07,29,15,07,32.90
2009,07,29,15,08,32.70
2009,07,29,15,09,32.60
2009,07,29,15,10,32.60
2009,07,29,15,11,32.60
2009,07,29,15,12,32.50
2009,07,29,15,13,32.50
2009,07,29,15,14,32.50
2009,07,29,15,15,32.50
2009,07,29,15,16,32.50
2009,07,29,15,17,32.40
2009,07,29,15,18,32.30
2009,07,29,15,19,32.30
2009,07,29,15,20,32.30
2009,07,29,15,21,32.30
2009,07,29,15,22,32.40
2009,07,29,15,23,32.40
2009,07,29,15,24,32.50
2009,07,29,15,25,32.50
2009,07,29,15,26,32.50
2009,07,29,15,27,32.60
2009,07,29,15,28,32.60
2009,07,29,15,29,32.80
2009,07,29,15,30,32.80
2009,07,29,15,31,32.80
2009,07,29,15,32,32.90
2009,07,29,15,33,33.00
2009,07,29,15,34,33.10
2009,07,29,15,35,33.20
2009,07,29,15,36,33.40
2009,07,29,15,37,33.40
2009,07,29,15,38,33.50
2009,07,29,15,39,33.60
2009,07,29,15,40,33.60
2009,07,29,15,41,33.60
2009,07,29,15,42,33.60
2009,07,29,15,43,33.60
2009,07,29,15,44,33.60
2009,07,29,15,45,33.60
2009,07,29,15,46,33.60
2009,07,29,15,47,33.60
2009,07,29,15,48,33.50
2009,07,29,15,49,33.50
2009,07,29,15,50,33.60
2009,07,29,15,51,33.60
2009,07,29,15,52,33.70
2009,07,29,15,53,33.70
2009,07,29,15,54,33.70
2009,07,29,15,55,33.70
2009,07,29,15,56,33.70
2009,07,29,15,57,33.70
2009,07,29,15,58,33.80
2009,07,29,15,59,33.80
2009,07,29,16,00,33.80
2009,07,29,16,01,33.80
2009,07,29,16,02,33.70
2009,07,29,16,03,33.70
2009,07,29,16,04,33.60
2009,07,29,16,05,33.50
2009,07,29,16,06,33.40
2009,07,29,16,07,33.50
2009,07,29,16,08,33.60
2009,07,29,16,09,33.60
2009,07,29,16,10,33.70
2009,07,29,16,11,33.70
2009,07,29,16,12,33.70
2009,07,29,16,13,33.70
2009,07,29,16,14,33.70
2009,07,29,16,15,33.80
2009,07,29,16,16,33.90
2009,07,29,16,17,34.10
2009,07,29,16,18,34.20
2009,07,29,16,19,34.20
2009,07,29,16,20,34.30
2009,07,29,16,21,34.30
2009,07,29,16,22,34.30
2009,07,29,16,23,34.40
2009,07,29,16,24,34.40
2009,07,29,16,25,34.40
2009,07,29,16,26,34.60
2009,07,29,16,27,34.60
2009,07,29,16,28,34.70
2009,07,29,16,29,34.90
2009,07,29,16,30,35.00
2009,07,29,16,31,35.20
2009,07,29,16,32,35.30
2009,07,29,16,33,35.30
2009,07,29,16,34,35.50
2009,07,29,16,35,35.50
2009,07,29,16,36,35.60
2009,07,29,16,37,35.60
2009,07,29,16,38,35.60
2009,07,29,16,39,35.60
2009,07,29,16,40,35.60
2009,07,29,16,41,35.70
2009,07,29,16,42,35.70
2009,07,29,16,43,35.80
2009,07,29,16,44,35.90
2009,07,29,16,45,36.00
2009,07,29,16,46,35.80
2009,07,29,16,47,35.60
2009,07,29,16,48,35.30
2009,07,29,16,49,35.10
2009,07,29,16,50,34.90
2009,07,29,16,51,34.70
2009,07,29,16,52,34.70
2009,07,29,16,53,34.60
2009,07,29,16,54,34.60
2009,07,29,16,55,34.50
2009,07,29,16,56,34.40
2009,07,29,16,57,34.40
2009,07,29,16,58,34.40
2009,07,29,16,59,34.40
2009,07,29,17,00,34.30
2009,07,29,17,01,34.40
2009,07,29,17,02,34.40
2009,07,29,17,03,34.30
2009,07,29,17,04,34.30
2009,07,29,17,05,34.30
2009,07,29,17,06,34.30
2009,07,29,17,07,34.30
2009,07,29,17,08,34.20
2009,07,29,17,09,34.10
2009,07,29,17,10,34.00
2009,07,29,17,11,34.00
2009,07,29,17,12,33.80
2009,07,29,17,13,33.80
2009,07,29,17,14,33.60
2009,07,29,17,15,33.60
2009,07,29,17,16,33.50
2009,07,29,17,17,33.50
2009,07,29,17,18,33.50
2009,07,29,17,19,33.50